When you browse on this site, cookies collect data to enhance your experience and personalize the content and advertising you see.
Visit our Privacy Policy to learn more. By continuing to use the site, you agree to this use of cookies and data.
  • în România
  • Lista ţărilor
  • Pe 7 zile
  • Temperatura apei
  • Hartă satelitară
  • Meteo pe hartă
  • Widget-uri
  • user-avatar
    Intrare

    Meteo pe oră la Krasnoe Pole

    Astăzi, 17 Ianuarie, Joi

    Timp Temperatura Precipitaţii Vânt Presiune Umiditate
    00:00 -2°C° 0.1 mm 2 m/s 723 mmHg 79%
    01:00 -2°C° 0.1 mm 2 m/s 723 mmHg 79%
    02:00 0°C° 0.1 mm 1 m/s 724 mmHg 79%
    03:00 -3°C° 0 mm 2 m/s 724 mmHg 75%
    04:00 -1°C° 0 mm 1 m/s 725 mmHg 76%
    05:00 -1°C° 0 mm 1 m/s 725 mmHg 77%
    06:00 -2°C° 0 mm 0 m/s 725 mmHg 79%
    07:00 -2°C° 0 mm 0 m/s 726 mmHg 77%
    08:00 -2°C° 0 mm 0 m/s 726 mmHg 75%
    09:00 0°C° 0 mm 1 m/s 727 mmHg 73%
    10:00 0°C° 0 mm 1 m/s 727 mmHg 70%
    11:00 +1°C° 0 mm 1 m/s 727 mmHg 67%
    12:00 -1°C° 0 mm 2 m/s 727 mmHg 64%
    13:00 -1°C° 0 mm 2 m/s 728 mmHg 64%
    14:00 -1°C° 0 mm 2 m/s 728 mmHg 64%
    15:00 -1°C° 0 mm 3 m/s 728 mmHg 68%
    16:00 -1°C° 0 mm 3 m/s 729 mmHg 73%
    17:00 -2°C° 0 mm 2 m/s 729 mmHg 78%
    18:00 -3°C° 0 mm 2 m/s 730 mmHg 83%
    19:00 -1°C° 0 mm 1 m/s 730 mmHg 83%
    20:00 -1°C° 0 mm 1 m/s 730 mmHg 83%
    21:00 -1°C° 0 mm 1 m/s 731 mmHg 83%
    22:00 -1°C° 0 mm 1 m/s 731 mmHg 82%
    23:00 -1°C° 0 mm 1 m/s 731 mmHg 80%

    Mâine, 18 Ianuarie, Vineri

    Timp Temperatura Precipitaţii Vânt Presiune Umiditate
    00:00 -1°C° 0 mm 1 m/s 732 mmHg 78%
    01:00 -1°C° 0 mm 1 m/s 732 mmHg 76%
    02:00 -1°C° 0 mm 1 m/s 732 mmHg 75%
    03:00 -1°C° 0 mm 1 m/s 732 mmHg 73%
    04:00 -1°C° 0 mm 1 m/s 732 mmHg 70%
    05:00 -1°C° 0 mm 1 m/s 732 mmHg 67%
    06:00 -1°C° 0 mm 1 m/s 732 mmHg 64%
    07:00 0°C° 0 mm 1 m/s 733 mmHg 59%
    08:00 +1°C° 0 mm 1 m/s 733 mmHg 55%
    09:00 +1°C° 0 mm 1 m/s 733 mmHg 50%
    10:00 +2°C° 0 mm 1 m/s 733 mmHg 45%
    11:00 +4°C° 0 mm 1 m/s 732 mmHg 40%
    12:00 +4°C° 0 mm 0 m/s 732 mmHg 35%
    13:00 +5°C° 0 mm 1 m/s 732 mmHg 36%
    14:00 +5°C° 0 mm 1 m/s 732 mmHg 37%
    15:00 +6°C° 0 mm 1 m/s 732 mmHg 39%
    16:00 +4°C° 0 mm 1 m/s 732 mmHg 44%
    17:00 +3°C° 0 mm 1 m/s 732 mmHg 49%
    18:00 +1°C° 0 mm 1 m/s 732 mmHg 54%
    19:00 +1°C° 0 mm 1 m/s 732 mmHg 54%
    20:00 +1°C° 0 mm 1 m/s 732 mmHg 53%
    21:00 +1°C° 0 mm 1 m/s 732 mmHg 53%
    22:00 +1°C° 0 mm 1 m/s 732 mmHg 52%
    23:00 +1°C° 0 mm 1 m/s 732 mmHg 51%

    Poimâine, 19 Ianuarie, Sâmbătă

    Timp Temperatura Precipitaţii Vânt Presiune Umiditate
    00:00 +1°C° 0 mm 1 m/s 732 mmHg 50%
    01:00 +1°C° 0 mm 1 m/s 732 mmHg 49%
    02:00 +1°C° 0 mm 1 m/s 732 mmHg 47%
    03:00 +1°C° 0 mm 1 m/s 732 mmHg 46%
    04:00 +1°C° 0 mm 1 m/s 731 mmHg 45%
    05:00 +1°C° 0 mm 1 m/s 731 mmHg 43%
    06:00 +1°C° 0 mm 1 m/s 731 mmHg 42%
    07:00 +2°C° 0 mm 1 m/s 731 mmHg 40%
    08:00 +2°C° 0 mm 1 m/s 731 mmHg 38%
    09:00 +2°C° 0 mm 0 m/s 731 mmHg 36%
    10:00 +3°C° 0 mm 0 m/s 731 mmHg 33%
    11:00 +4°C° 0 mm 0 m/s 730 mmHg 30%
    12:00 +6°C° 0 mm 0 m/s 730 mmHg 27%
    13:00 +6°C° 0 mm 0 m/s 730 mmHg 29%
    14:00 +6°C° 0 mm 0 m/s 730 mmHg 32%
    15:00 +6°C° 0 mm 0 m/s 730 mmHg 34%
    16:00 +5°C° 0 mm 0 m/s 730 mmHg 36%
    17:00 +4°C° 0 mm 0 m/s 730 mmHg 38%
    18:00 +4°C° 0 mm 1 m/s 730 mmHg 39%
    19:00 +4°C° 0 mm 1 m/s 731 mmHg 39%
    20:00 +4°C° 0 mm 1 m/s 731 mmHg 38%
    21:00 +4°C° 0 mm 1 m/s 731 mmHg 37%
    22:00 +4°C° 0 mm 1 m/s 731 mmHg 37%
    23:00 +4°C° 0 mm 1 m/s 731 mmHg 37%

    20 Ianuarie, Duminică

    Timp Temperatura Precipitaţii Vânt Presiune Umiditate
    00:00 +4°C° 0 mm 1 m/s 731 mmHg 37%
    01:00 +4°C° 0 mm 1 m/s 731 mmHg 38%
    02:00 +4°C° 0 mm 1 m/s 731 mmHg 40%
    03:00 +4°C° 0 mm 1 m/s 731 mmHg 41%
    04:00 +4°C° 0 mm 1 m/s 731 mmHg 45%
    05:00 +3°C° 0 mm 1 m/s 731 mmHg 48%
    06:00 +3°C° 0 mm 1 m/s 731 mmHg 51%
    07:00 +3°C° 0 mm 1 m/s 732 mmHg 55%
    08:00 +3°C° 0 mm 1 m/s 732 mmHg 59%
    09:00 +4°C° 0 mm 1 m/s 733 mmHg 63%
    10:00 +4°C° 0 mm 1 m/s 733 mmHg 65%
    11:00 +5°C° 0 mm 1 m/s 733 mmHg 67%
    12:00 +5°C° 0 mm 1 m/s 733 mmHg 69%
    13:00 +5°C° 0.1 mm 1 m/s 732 mmHg 72%
    14:00 +4°C° 0.1 mm 2 m/s 732 mmHg 76%
    15:00 +3°C° 0.1 mm 2 m/s 732 mmHg 79%
    16:00 +3°C° 0 mm 2 m/s 732 mmHg 83%
    17:00 +2°C° 0 mm 2 m/s 733 mmHg 87%
    18:00 +1°C° 0 mm 2 m/s 733 mmHg 92%
    19:00 +1°C° 0 mm 2 m/s 733 mmHg 92%
    20:00 +1°C° 0 mm 2 m/s 733 mmHg 92%
    21:00 +1°C° 0 mm 2 m/s 733 mmHg 92%
    22:00 +1°C° 0 mm 2 m/s 733 mmHg 92%
    23:00 +1°C° 0 mm 2 m/s 732 mmHg 91%

    21 Ianuarie, Luni

    Timp Temperatura Precipitaţii Vânt Presiune Umiditate
    00:00 +1°C° 0 mm 2 m/s 732 mmHg 90%
    01:00 +1°C° 0 mm 2 m/s 732 mmHg 89%
    02:00 +1°C° 0 mm 2 m/s 732 mmHg 88%
    03:00 +1°C° 0 mm 2 m/s 732 mmHg 87%
    04:00 -1°C° 0 mm 2 m/s 732 mmHg 86%
    05:00 -1°C° 0 mm 2 m/s 732 mmHg 86%
    06:00 -1°C° 0 mm 2 m/s 731 mmHg 86%
    07:00 -1°C° 0 mm 2 m/s 731 mmHg 83%
    08:00 +1°C° 0 mm 2 m/s 731 mmHg 81%
    09:00 +1°C° 0 mm 2 m/s 731 mmHg 79%
    10:00 +1°C° 0 mm 3 m/s 730 mmHg 74%
    11:00 +2°C° 0 mm 3 m/s 730 mmHg 68%
    12:00 +3°C° 0 mm 3 m/s 729 mmHg 63%
    13:00 +3°C° 0 mm 3 m/s 729 mmHg 63%
    14:00 +4°C° 0 mm 3 m/s 728 mmHg 63%
    15:00 +4°C° 0 mm 3 m/s 728 mmHg 62%
    16:00 +4°C° 0 mm 2 m/s 728 mmHg 66%
    17:00 +3°C° 0 mm 2 m/s 728 mmHg 70%
    18:00 +2°C° 0 mm 2 m/s 728 mmHg 74%
    19:00 +2°C° 0 mm 2 m/s 728 mmHg 72%
    20:00 +3°C° 0 mm 1 m/s 728 mmHg 70%
    21:00 +3°C° 0 mm 1 m/s 727 mmHg 68%
    22:00 +3°C° 0 mm 1 m/s 727 mmHg 65%
    23:00 +4°C° 0 mm 1 m/s 727 mmHg 62%

    22 Ianuarie, Marţi

    Timp Temperatura Precipitaţii Vânt Presiune Umiditate
    00:00 +4°C° 0 mm 1 m/s 726 mmHg 59%
    01:00 +4°C° 0 mm 1 m/s 726 mmHg 57%
    02:00 +4°C° 0 mm 1 m/s 726 mmHg 55%
    03:00 +4°C° 0 mm 1 m/s 726 mmHg 53%
    04:00 +3°C° 0.2 mm 2 m/s 726 mmHg 60%
    05:00 +2°C° 0.2 mm 3 m/s 727 mmHg 67%
    06:00 +1°C° 0.2 mm 4 m/s 727 mmHg 75%
    07:00 0°C° 0.4 mm 5 m/s 728 mmHg 79%
    08:00 -1°C° 0.4 mm 6 m/s 729 mmHg 84%
    09:00 -1°C° 0.4 mm 6 m/s 730 mmHg 88%
    10:00 -2°C° 0.1 mm 6 m/s 730 mmHg 86%
    11:00 -2°C° 0.1 mm 6 m/s 730 mmHg 83%
    12:00 -3°C° 0.1 mm 6 m/s 731 mmHg 80%
    13:00 -2°C° 0 mm 5 m/s 731 mmHg 78%
    14:00 -2°C° 0 mm 4 m/s 731 mmHg 75%
    15:00 -3°C° 0 mm 4 m/s 731 mmHg 73%
    16:00 -2°C° 0 mm 3 m/s 732 mmHg 73%
    17:00 -3°C° 0 mm 2 m/s 732 mmHg 74%
    18:00 -1°C° 0 mm 1 m/s 732 mmHg 75%
    19:00 -1°C° 0 mm 1 m/s 732 mmHg 75%
    20:00 -4°C° 0 mm 2 m/s 732 mmHg 75%
    21:00 -4°C° 0 mm 2 m/s 733 mmHg 76%
    22:00 -4°C° 0 mm 2 m/s 732 mmHg 76%
    23:00 -4°C° 0 mm 2 m/s 732 mmHg 77%
    Arată mai mult